Flag for U.S.A. Weather past 2 weeks in New Salem, North Dakota, U.S.A.

Now
77 °F

Scattered clouds.


Feels Like: 78 °F
Forecast: 57 / 75 °F
Wind: 22 mph from Northwest

Location: Bismarck Municipal Airport

Current Time: Jul 26, 2014 at 2:31:20 PM

Latest Report: Jul 26, 2014 at 1:52 PM


Visibility: 10 mi

Pressure: 29.89 "Hg

Humidity: 40%

Dew point: 51 °F

Location of New SalemLocation

Historic Weather in New Salem — Graph

°F

New Salem temperature yesterday

Maximum temperature yesterday: 83 °F (at 5:52 PM)
Minimum temperature yesterday: 60 °F (at 10:52 PM)
Average temperature yesterday: 73 °F

Past Weeks' High & Low Weather Summary

 TemperatureHumidityPressure
High94 °F (Jul 20, 4:52 PM)100% (Jul 19, 6:52 AM)30.29 "Hg (Jul 19, 6:52 AM)
Low47 °F (Jul 15, 1:52 AM)28% (Jul 13, 2:52 PM)29.62 "Hg (Jul 20, 5:52 AM)
Average70 °F65%29.95 "Hg
* Reported Jul 11 12:52 PM — Jul 26 12:52 PM, New Salem, Weather by CustomWeather, © 2014

Note: Actual official high and low records may vary slightly from our data, if they occured in-between our weather recording intervals... More about our weather records

Advertising

New Salem weather history for previous 24 hours

 ConditionsComfort  
Time TempWeatherWind HumidityBarometerVisibility
12:52 PM
Jul 26
76 °FSunny.22 mph45%29.89 "Hg10 mi
11:52 AM74 °FSunny.20 mph41%29.89 "Hg10 mi
10:52 AM72 °FSunny.16 mph44%29.89 "Hg10 mi
9:52 AM69 °FSunny.22 mph53%29.89 "Hg10 mi
8:52 AM66 °FSunny.15 mph59%29.88 "Hg10 mi
7:52 AM62 °FSunny.15 mph65%29.87 "Hg10 mi
6:52 AM58 °FClear.6 mph81%29.85 "Hg10 mi
5:52 AM60 °FClear.3 mph72%29.83 "Hg10 mi
4:52 AM59 °FClear.7 mph78%29.81 "Hg10 mi
3:52 AM61 °FClear.8 mph72%29.79 "Hg10 mi
2:52 AM62 °FClear.6 mph73%29.80 "Hg10 mi
1:52 AM63 °FClear.No wind70%29.78 "Hg10 mi
12:52 AM61 °FClear.6 mph75%29.79 "Hg10 mi
11:52 PM
Jul 25
60 °FClear.7 mph83%29.79 "Hg10 mi
10:52 PM60 °FClear.7 mph78%29.79 "Hg10 mi
9:52 PM65 °FSunny.7 mph66%29.78 "Hg10 mi
8:52 PM73 °FSunny.6 mph53%29.77 "Hg10 mi
7:52 PM80 °FSunny.3 mph32%29.78 "Hg10 mi
6:52 PM82 °FSunny.6 mph29%29.78 "Hg10 mi
5:52 PM83 °FSunny.N/A28%29.78 "Hg10 mi
4:52 PM82 °FSunny.7 mph29%29.79 "Hg10 mi
3:52 PM82 °FSunny.8 mph31%29.80 "Hg10 mi
2:52 PM82 °FSunny.13 mph28%29.81 "Hg10 mi
Weather by CustomWeather, © 2014

See weather overviewHow to use our weather pages